Location: Wien
(48.2082°N, 16.3738°E)
Time: 10:50:47
(UTC+01:00)

SR - All Passes

Search period start: 25 February 2024 00:00
Search period end: 06 March 2024 00:00
Orbit: 573 x 868 km, 66.7° (Epoch: 24 February)

Date Brightness Start Highest point End Pass type
(mag) Time Alt. Az. Time Alt. Az. Time Alt. Az.
25 Feb - 01:41:42 10° W 01:42:39 11° W 01:43:36 10° WSW night (unlit)
25 Feb - 14:27:48 10° S 14:33:07 37° ESE 14:38:17 10° NE daylight
25 Feb - 16:09:21 10° WSW 16:15:00 49° NW 16:20:26 10° NNE daylight
25 Feb - 17:54:41 10° WNW 17:58:15 17° NNW 18:01:43 10° NNE visible
25 Feb - 19:41:36 10° N 19:42:33 10° N 19:43:31 10° N visible
25 Feb - 21:23:23 10° NNW 21:26:49 17° NNE 21:30:05 10° ENE visible
25 Feb - 23:04:49 10° NNW 23:09:56 58° NE 23:14:35 10° SE visible
26 Feb - 00:47:33 10° WNW 00:51:22 22° WSW 00:54:58 10° SSW night (unlit)
26 Feb - 13:37:28 10° SSE 13:41:36 20° ESE 13:45:40 10° ENE daylight
26 Feb - 15:17:07 10° SW 15:22:59 82° NW 15:28:40 10° NE daylight
26 Feb - 17:01:13 10° W 17:05:45 23° NW 17:10:07 10° NNE daylight
26 Feb - 18:48:10 10° NNW 18:49:45 11° N 18:51:19 10° N visible
26 Feb - 20:31:49 10° N 20:34:11 13° NNE 20:36:30 10° NE visible
26 Feb - 22:13:04 10° NNW 22:17:49 34° NE 22:22:10 10° ESE visible
26 Feb - 23:55:04 10° NW 23:59:53 45° WSW 00:04:17 10° S night (unlit)
27 Feb - 14:25:27 10° SSW 14:31:10 58° ESE 14:36:42 10° NE daylight
27 Feb - 16:08:09 10° WSW 16:13:25 34° NW 16:18:29 10° NNE daylight
27 Feb - 17:54:17 10° NW 17:57:01 13° NNW 17:59:40 10° N daylight
27 Feb - 19:40:09 10° N 19:41:26 11° N 19:42:43 10° NNE visible
27 Feb - 21:21:25 10° NNW 21:25:28 22° NNE 21:29:15 10° E visible
27 Feb - 23:03:01 10° NW 23:08:10 88° SW 23:12:49 10° SSE visible
28 Feb - 00:46:57 10° WNW 00:49:08 13° WSW 00:51:15 10° SW night (unlit)
28 Feb - 13:34:26 10° S 13:39:31 32° ESE 13:44:29 10° NE daylight
28 Feb - 15:15:33 10° SW 15:21:16 56° NW 15:26:47 10° NNE daylight
28 Feb - 17:00:34 10° WNW 17:04:23 18° NNW 17:08:04 10° NNE daylight
28 Feb - 18:47:45 10° NNW 18:48:38 10° N 18:49:30 10° N visible
28 Feb - 20:29:50 10° NNW 20:32:57 16° NNE 20:35:56 10° ENE visible
28 Feb - 22:11:10 10° NNW 22:16:12 50° NE 22:20:46 10° SE visible
28 Feb - 23:53:39 10° NW 23:57:48 27° WSW 00:01:39 10° SSW night (unlit)
29 Feb - 12:44:26 10° SE 12:48:03 17° ESE 12:51:36 10° ENE daylight
29 Feb - 14:23:27 10° SSW 14:29:19 87° ESE 14:34:57 10° NE daylight
29 Feb - 16:07:12 10° W 16:11:55 25° NW 16:16:29 10° NNE daylight
29 Feb - 17:54:01 10° NNW 17:55:49 11° NNW 17:57:37 10° N daylight
29 Feb - 19:38:14 10° N 19:40:16 12° NNE 19:42:15 10° NE visible
29 Feb - 21:19:27 10° NNW 21:24:00 30° NE 21:28:12 10° E visible
29 Feb - 23:01:19 10° NW 23:06:14 54° WSW 23:10:44 10° SSE visible
01 Mar - 13:31:56 10° S 13:37:32 49° ESE 13:42:57 10° NE daylight
01 Mar - 15:14:14 10° WSW 15:19:39 39° NW 15:24:50 10° NNE daylight
01 Mar - 17:00:07 10° NW 17:03:06 14° NNW 17:06:01 10° N daylight
01 Mar - 18:46:33 10° N 18:47:29 10° N 18:48:25 10° NNE visible
01 Mar - 20:27:49 10° NNW 20:31:37 20° NNE 20:35:11 10° ENE visible
01 Mar - 22:09:20 10° NNW 22:14:27 78° NE 22:19:05 10° SE visible
01 Mar - 23:52:42 10° WNW 23:55:34 16° WSW 23:58:20 10° SW night (unlit)
02 Mar - 12:41:08 10° SSE 12:45:55 27° ESE 12:50:36 10° NE daylight
02 Mar - 14:21:45 10° SW 14:27:32 64° NW 14:33:05 10° NNE daylight
02 Mar - 16:06:28 10° WNW 16:10:31 19° NNW 16:14:25 10° NNE daylight
02 Mar - 17:53:45 10° NNW 17:54:40 10° N 17:55:36 10° N daylight
02 Mar - 19:36:14 10° N 19:39:02 14° NNE 19:41:43 10° NE visible
02 Mar - 21:17:31 10° NNW 21:22:25 43° NE 21:26:54 10° ESE visible
02 Mar - 22:59:48 10° NW 23:04:11 32° WSW 23:08:14 10° S visible
03 Mar - 11:51:34 10° SE 11:54:29 14° ESE 11:57:22 10° ENE daylight
03 Mar - 13:29:48 10° SSW 13:35:37 76° ESE 13:41:14 10° NE daylight
03 Mar - 15:13:11 10° W 15:18:06 28° NW 15:22:49 10° NNE daylight
03 Mar - 16:59:49 10° NW 17:01:53 12° NNW 17:03:55 10° N daylight
03 Mar - 18:44:41 10° N 18:46:20 11° NNE 18:47:56 10° NNE visible
03 Mar - 20:25:50 10° NNW 20:30:10 26° NE 20:34:12 10° E visible
03 Mar - 22:07:34 10° NW 22:12:34 65° WSW 22:17:06 10° SSE visible
04 Mar - 12:38:26 10° S 12:43:52 42° ESE 12:49:08 10° NE daylight
04 Mar - 14:20:20 10° WSW 14:25:52 44° NW 14:31:09 10° NNE daylight
04 Mar - 16:05:57 10° WNW 16:09:12 15° NNW 16:12:20 10° NNE daylight
04 Mar - 17:53:00 10° N 17:53:32 10° N 17:54:04 10° N daylight
04 Mar - 19:34:13 10° NNW 19:37:43 18° NNE 19:41:02 10° ENE visible
04 Mar - 21:15:38 10° NNW 21:20:42 66° NE 21:25:18 10° SE visible
04 Mar - 22:58:37 10° WNW 23:02:00 19° WSW 23:05:12 10° SSW visible
05 Mar - 11:47:52 10° SSE 11:52:19 23° ESE 11:56:38 10° ENE daylight
05 Mar - 13:27:58 10° SW 13:33:48 73° NW 13:39:22 10° NNE daylight
05 Mar - 15:12:22 10° W 15:16:38 21° NNW 15:20:45 10° NNE daylight
05 Mar - 16:59:37 10° NNW 17:00:42 11° N 17:01:47 10° N daylight
05 Mar - 18:42:39 10° N 18:45:06 13° NNE 18:47:28 10° NE visible
05 Mar - 20:23:51 10° NNW 20:28:36 37° NE 20:32:58 10° ESE visible
05 Mar - 22:05:57 10° NW 22:10:31 38° WSW 22:14:45 10° S visible
